Location: Cheyres
(46.8153°N, 6.7877°E)
Time: 13:16:06
(UTC+00:00)

Cosmos 1782 - Pass Details

Date: 11 May 2021
Orbit: 537 x 550 km, 82.5° (Epoch: 19 June)

Event Time Altitude Azimuth Distance (km) Brightness Sun altitude
Exits shadow 20:23:01 - 191° (S) 2,296 5.7 -12.8°
Reaches altitude 10° 20:24:12 10° 192° (SSW) 1,815 5.1 -12.9°
Maximum altitude 20:28:11 78° 279° (W) 564 2.9 -13.4°
Drops below altitude 10° 20:32:12 10° 7° (N) 1,823 6.0 -13.8°
Sets 20:34:22 0° 8° (N) 2,719 7.0 -14.1°
